| time (UTC) | temp F | wind direction | speed MPH | gust MPH | rain 1hr in | rain 24hr in | rain mn in | humidity % | barometer mb |
| 20260901074928 | 59 | 247 | 1.0 | 2.0 | 0.00 | 0.02 | 0.00 | 76 | 1022.0 |
| 20260901073928 | 59 | 270 | 1.0 | 2.0 | 0.00 | 0.02 | 0.00 | 76 | 1022.1 |
| 20260901071928 | 59 | 270 | 1.0 | 4.0 | 0.00 | 0.02 | 0.00 | 75 | 1022.1 |
| 20260901070944 | 59 | 270 | 2.0 | 4.0 | 0.00 | 0.02 | 0.00 | 77 | 1022.1 |
| 20260901065942 | 59 | 315 | 0.0 | 0.0 | 0.00 | 0.02 | 0.00 | 77 | 1022.0 |
| 20260901065028 | 60 | 315 | 0.0 | 0.0 | 0.00 | 0.02 | 0.00 | 76 | 1022.1 |
| 20260901064126 | 60 | 315 | 0.0 | 0.0 | 0.00 | 0.02 | 0.00 | 74 | 1022.0 |
| 20260901063128 | 60 | 315 | 0.0 | 1.0 | 0.00 | 0.02 | 0.00 | 74 | 1022.1 |
| 20260901063026 | 60 | 315 | 1.0 | 2.0 | 0.00 | 0.02 | 0.00 | 74 | 1022.1 |
| 20260901062027 | 61 | 292 | 2.0 | 3.0 | 0.00 | 0.02 | 0.00 | 72 | 1022.2 |
| 20260901061027 | 61 | 270 | 0.0 | 1.0 | 0.00 | 0.02 | 0.00 | 72 | 1022.3 |
| 20260901060037 | 61 | 247 | 2.0 | 3.0 | 0.00 | 0.02 | 0.00 | 72 | 1022.4 |
| 20260901055037 | 61 | 247 | 0.0 | 0.0 | 0.00 | 0.02 | 0.02 | 72 | 1022.4 |
| 20260901054135 | 61 | 270 | 1.0 | 2.0 | 0.00 | 0.02 | 0.02 | 72 | 1022.3 |
| 20260901053137 | 61 | 270 | 1.0 | 2.0 | 0.00 | 0.02 | 0.02 | 72 | 1022.5 |
| 20260901051137 | 62 | 225 | 3.0 | 4.0 | 0.00 | 0.02 | 0.02 | 71 | 1022.7 |
| 20260901051039 | 62 | 218 | 3.0 | 5.0 | 0.00 | 0.02 | 0.02 | 72 | 1022.7 |
| 20260901050038 | 62 | 135 | 2.0 | 4.0 | 0.00 | 0.02 | 0.02 | 71 | 1022.6 |
| 20260901045037 | 62 | 160 | 4.0 | 7.0 | 0.00 | 0.02 | 0.02 | 69 | 1022.7 |
| 20260901043137 | 62 | 176 | 3.0 | 6.0 | 0.00 | 0.02 | 0.02 | 70 | 1023.2 |
| 20260901043038 | 62 | 163 | 4.0 | 7.0 | 0.00 | 0.02 | 0.02 | 70 | 1023.1 |
| 20260901041235 | 61 | 167 | 2.0 | 3.0 | 0.00 | 0.02 | 0.02 | 74 | 1023.2 |
| 20260901040236 | 60 | 180 | 2.0 | 4.0 | 0.00 | 0.02 | 0.02 | 76 | 1023.4 |
| 20260901035236 | 60 | 270 | 0.0 | 1.0 | 0.00 | 0.02 | 0.02 | 77 | 1023.2 |
| 20260901034236 | 60 | 270 | 0.0 | 2.0 | 0.00 | 0.02 | 0.02 | 76 | 1023.3 |
| 20260901033237 | 60 | 292 | 3.0 | 4.0 | 0.00 | 0.02 | 0.02 | 76 | 1023.1 |
| 20260901032236 | 61 | 264 | 4.0 | 6.0 | 0.00 | 0.02 | 0.02 | 74 | 1023.0 |
| 20260901031240 | 61 | 273 | 4.0 | 8.0 | 0.00 | 0.02 | 0.02 | 74 | 1023.0 |
| 20260901025338 | 61 | 243 | 5.0 | 7.0 | 0.00 | 0.02 | 0.02 | 75 | 1023.0 |
| 20260901024436 | 61 | 212 | 4.0 | 7.0 | 0.00 | 0.02 | 0.02 | 76 | 1022.7 |
| 20260901023437 | 61 | 191 | 4.0 | 5.0 | 0.00 | 0.02 | 0.02 | 78 | 1022.7 |
| 20260901022436 | 61 | 165 | 5.0 | 7.0 | 0.00 | 0.02 | 0.02 | 78 | 1022.7 |
| 20260901021436 | 61 | 112 | 2.0 | 4.0 | 0.00 | 0.02 | 0.02 | 76 | 1022.7 |
| 20260901020534 | 62 | 116 | 3.0 | 7.0 | 0.00 | 0.02 | 0.02 | 76 | 1023.0 |
| 20260901015538 | 62 | 124 | 5.0 | 10.0 | 0.00 | 0.02 | 0.02 | 72 | 1022.7 |
| 20260901014637 | 62 | 147 | 1.0 | 4.0 | 0.00 | 0.02 | 0.02 | 69 | 1023.2 |
| 20260901012735 | 62 | 184 | 5.0 | 7.0 | 0.01 | 0.02 | 0.02 | 72 | 1023.4 |
| 20260901011735 | 62 | 180 | 4.0 | 5.0 | 0.02 | 0.02 | 0.02 | 69 | 1023.6 |
| 20260901005736 | 62 | 202 | 0.0 | 0.0 | 0.02 | 0.02 | 0.02 | 67 | 1024.0 |
| 20260901004753 | 62 | 225 | 2.0 | 6.0 | 0.02 | 0.02 | 0.02 | 67 | 1024.1 |
| 20260901003836 | 62 | 243 | 5.0 | 6.0 | 0.02 | 0.02 | 0.02 | 65 | 1024.4 |
| 20260901002836 | 64 | 243 | 7.0 | 11.0 | 0.01 | 0.01 | 0.01 | 59 | 1024.6 |
| 20260901001838 | 66 | 250 | 4.0 | 5.0 | 0.00 | 0.00 | 0.00 | 56 | 1024.5 |
| 20260901000935 | 66 | 270 | 3.0 | 5.0 | 0.00 | 0.00 | 0.00 | 56 | 1024.4 |
| 20260831235937 | 66 | 292 | 0.0 | 3.0 | 0.00 | 0.00 | 0.00 | 55 | 1024.6 |
| 20260831234953 | 66 | 90 | 0.0 | 0.0 | 0.00 | 0.00 | 0.00 | 55 | 1024.5 |
| 20260831233952 | 66 | 205 | 0.0 | 1.0 | 0.00 | 0.00 | 0.00 | 56 | 1024.0 |
| 20260831233835 | 66 | 268 | 1.0 | 3.0 | 0.00 | 0.00 | 0.00 | 57 | 1023.9 |
| 20260831232837 | 66 | 247 | 0.0 | 0.0 | 0.00 | 0.00 | 0.00 | 56 | 1023.2 |
| 20260831231852 | 67 | 267 | 5.0 | 9.0 | 0.00 | 0.00 | 0.00 | 53 | 1022.8 |
| 20260831230937 | 68 | 235 | 8.0 | 12.0 | 0.00 | 0.00 | 0.00 | 49 | 1022.4 |
| 20260831225936 | 70 | 232 | 16.0 | 35.0 | 0.00 | 0.00 | 0.00 | 45 | 1021.4 |
| 20260831223038 | 74 | 179 | 14.0 | 23.0 | 0.00 | 0.00 | 0.00 | 44 | 1019.2 |
| 20260831221135 | 74 | 159 | 13.0 | 21.0 | 0.00 | 0.08 | 0.00 | 49 | 1019.0 |
| 20260831220136 | 75 | 183 | 13.0 | 18.0 | 0.00 | 0.08 | 0.00 | 46 | 1019.0 |
| 20260831215151 | 76 | 187 | 14.0 | 20.0 | 0.00 | 0.08 | 0.00 | 44 | 1019.0 |
| 20260831214135 | 77 | 179 | 10.0 | 18.0 | 0.00 | 0.08 | 0.00 | 43 | 1018.7 |
| 20260831213135 | 79 | 173 | 13.0 | 18.0 | 0.00 | 0.08 | 0.00 | 43 | 1018.7 |
| 20260831212137 | 79 | 171 | 10.0 | 15.0 | 0.00 | 0.08 | 0.00 | 42 | 1018.9 |
| 20260831211236 | 80 | 179 | 10.0 | 16.0 | 0.00 | 0.08 | 0.00 | 41 | 1018.8 |
| 20260831211138 | 80 | 175 | 11.0 | 16.0 | 0.00 | 0.08 | 0.00 | 41 | 1018.8 |
| 20260831210236 | 81 | 167 | 10.0 | 15.0 | 0.00 | 0.08 | 0.00 | 38 | 1018.7 |
| 20260831204251 | 80 | 112 | 2.0 | 4.0 | 0.00 | 0.08 | 0.00 | 39 | 1019.0 |
| 20260831203338 | 80 | 112 | 1.0 | 3.0 | 0.00 | 0.08 | 0.00 | 37 | 1019.4 |
| 20260831202337 | 80 | 152 | 3.0 | 4.0 | 0.00 | 0.08 | 0.00 | 36 | 1019.5 |
| 20260831201436 | 80 | 157 | 5.0 | 8.0 | 0.00 | 0.08 | 0.00 | 37 | 1019.4 |
| 20260831200436 | 79 | 175 | 3.0 | 5.0 | 0.00 | 0.08 | 0.00 | 40 | 1019.5 |
| 20260831195535 | 78 | 157 | 3.0 | 5.0 | 0.00 | 0.08 | 0.00 | 43 | 1019.7 |
| 20260831194537 | 78 | 152 | 3.0 | 7.0 | 0.00 | 0.08 | 0.00 | 45 | 1019.9 |
| 20260831192535 | 77 | 149 | 5.0 | 8.0 | 0.00 | 0.08 | 0.00 | 45 | 1020.2 |
| 20260831191537 | 78 | 136 | 5.0 | 10.0 | 0.00 | 0.08 | 0.00 | 45 | 1020.5 |
| 20260831185539 | 78 | 67 | 2.0 | 4.0 | 0.00 | 0.08 | 0.00 | 45 | 1020.8 |
| 20260831184553 | 78 | 103 | 5.0 | 8.0 | 0.00 | 0.08 | 0.00 | 44 | 1020.8 |
| 20260831183651 | 77 | 77 | 4.0 | 6.0 | 0.00 | 0.08 | 0.00 | 43 | 1021.0 |
| 20260831182737 | 77 | 115 | 5.0 | 10.0 | 0.00 | 0.08 | 0.00 | 44 | 1021.2 |
| 20260831182637 | 77 | 105 | 6.0 | 9.0 | 0.00 | 0.08 | 0.00 | 45 | 1021.2 |
| 20260831182539 | 77 | 119 | 3.0 | 8.0 | 0.00 | 0.08 | 0.00 | 45 | 1021.3 |
| 20260831181538 | 76 | 156 | 3.0 | 5.0 | 0.00 | 0.08 | 0.00 | 46 | 1021.5 |
| 20260831180635 | 75 | 112 | 6.0 | 9.0 | 0.00 | 0.08 | 0.00 | 47 | 1021.5 |
| 20260831175637 | 75 | 156 | 4.0 | 7.0 | 0.00 | 0.08 | 0.00 | 46 | 1021.7 |
| 20260831175535 | 75 | 149 | 4.0 | 8.0 | 0.00 | 0.08 | 0.00 | 47 | 1021.7 |
| 20260831174538 | 74 | 148 | 3.0 | 6.0 | 0.00 | 0.08 | 0.00 | 46 | 1021.8 |
| 20260831173537 | 74 | 128 | 6.0 | 9.0 | 0.00 | 0.08 | 0.00 | 47 | 1021.7 |
| 20260831165753 | 73 | 175 | 7.0 | 11.0 | 0.00 | 0.08 | 0.00 | 51 | 1021.8 |
| 20260831164835 | 72 | 175 | 6.0 | 11.0 | 0.00 | 0.08 | 0.00 | 50 | 1021.9 |
| 20260831163853 | 73 | 171 | 5.0 | 10.0 | 0.00 | 0.08 | 0.00 | 48 | 1021.8 |
| 20260831162852 | 73 | 167 | 5.0 | 8.0 | 0.00 | 0.08 | 0.00 | 49 | 1021.8 |
| 20260831161852 | 72 | 180 | 1.0 | 3.0 | 0.00 | 0.08 | 0.00 | 51 | 1021.6 |
| 20260831160837 | 72 | 183 | 2.0 | 4.0 | 0.00 | 0.08 | 0.00 | 51 | 1021.7 |
| 20260831155935 | 72 | 180 | 5.0 | 7.0 | 0.00 | 0.08 | 0.00 | 53 | 1021.6 |
| 20260831154037 | 70 | 225 | 2.0 | 3.0 | 0.00 | 0.08 | 0.00 | 56 | 1021.3 |
| 20260831153037 | 70 | 135 | 0.0 | 1.0 | 0.00 | 0.08 | 0.00 | 59 | 1021.5 |
| 20260831152052 | 70 | 135 | 2.0 | 3.0 | 0.00 | 0.08 | 0.00 | 60 | 1021.6 |
| 20260831151037 | 69 | 135 | 1.0 | 1.0 | 0.00 | 0.08 | 0.00 | 61 | 1021.6 |
| 20260831145052 | 68 | 135 | 0.0 | 0.0 | 0.00 | 0.08 | 0.00 | 63 | 1022.0 |
| 20260831143135 | 66 | 360 | 1.0 | 1.0 | 0.00 | 0.08 | 0.00 | 66 | 1022.0 |
| 20260831142137 | 64 | 292 | 0.0 | 1.0 | 0.00 | 0.08 | 0.00 | 71 | 1021.9 |
| 20260831141236 | 62 | 292 | 0.0 | 1.0 | 0.00 | 0.08 | 0.00 | 74 | 1021.9 |
| 20260831140137 | 61 | 157 | 0.0 | 1.0 | 0.00 | 0.08 | 0.00 | 79 | 1022.1 |
| 20260831135137 | 59 | 157 | 0.0 | 0.0 | 0.00 | 0.08 | 0.00 | 82 | 1021.8 |
| 20260831134137 | 59 | 157 | 0.0 | 0.0 | 0.00 | 0.08 | 0.00 | 82 | 1021.6 |
| 20260831133237 | 58 | 157 | 0.0 | 0.0 | 0.00 | 0.09 | 0.00 | 83 | 1021.5 |
| 20260831131337 | 57 | 157 | 0.0 | 0.0 | 0.00 | 0.13 | 0.00 | 83 | 1021.3 |
| 20260831130336 | 57 | 157 | 0.0 | 0.0 | 0.00 | 0.13 | 0.00 | 82 | 1021.2 |
| 20260831130235 | 57 | 157 | 0.0 | 0.0 | 0.00 | 0.13 | 0.00 | 83 | 1021.2 |
| 20260831125236 | 57 | 157 | 0.0 | 0.0 | 0.00 | 0.13 | 0.00 | 84 | 1021.1 |
| 20260831124236 | 56 | 157 | 0.0 | 0.0 | 0.00 | 0.13 | 0.00 | 83 | 1021.1 |
| 20260831123237 | 56 | 157 | 0.0 | 0.0 | 0.00 | 0.13 | 0.00 | 84 | 1021.1 |
| 20260831122237 | 56 | 157 | 0.0 | 0.0 | 0.00 | 0.13 | 0.00 | 84 | 1021.1 |
| 20260831121253 | 56 | 157 | 0.0 | 0.0 | 0.00 | 0.13 | 0.00 | 83 | 1021.1 |
| 20260831120237 | 56 | 157 | 0.0 | 0.0 | 0.00 | 0.13 | 0.00 | 83 | 1021.3 |
| 20260831114336 | 56 | 157 | 0.0 | 0.0 | 0.00 | 0.13 | 0.00 | 81 | 1021.2 |
| 20260831114238 | 56 | 157 | 0.0 | 0.0 | 0.00 | 0.13 | 0.00 | 81 | 1021.2 |
| 20260831113237 | 56 | 157 | 0.0 | 0.0 | 0.00 | 0.13 | 0.00 | 80 | 1021.4 |
| 20260831112336 | 57 | 157 | 0.0 | 0.0 | 0.00 | 0.13 | 0.00 | 79 | 1021.5 |
| 20260831105339 | 58 | 157 | 0.0 | 0.0 | 0.00 | 0.13 | 0.00 | 77 | 1021.4 |
| 20260831104437 | 58 | 157 | 0.0 | 0.0 | 0.00 | 0.13 | 0.00 | 77 | 1021.3 |
| 20260831103438 | 59 | 157 | 0.0 | 0.0 | 0.00 | 0.13 | 0.00 | 75 | 1021.4 |
| 20260831102437 | 60 | 157 | 0.0 | 0.0 | 0.00 | 0.13 | 0.00 | 75 | 1021.3 |
| 20260831101436 | 59 | 157 | 0.0 | 1.0 | 0.00 | 0.13 | 0.00 | 78 | 1021.1 |
| 20260831095537 | 58 | 157 | 0.0 | 0.0 | 0.00 | 0.13 | 0.00 | 85 | 1020.8 |
| 20260831092635 | 57 | 157 | 0.0 | 0.0 | 0.00 | 0.13 | 0.00 | 84 | 1020.8 |
| 20260831092537 | 57 | 157 | 0.0 | 0.0 | 0.00 | 0.13 | 0.00 | 84 | 1020.8 |
| 20260831091552 | 58 | 157 | 0.0 | 0.0 | 0.00 | 0.13 | 0.00 | 83 | 1020.6 |
| 20260831091435 | 58 | 157 | 0.0 | 0.0 | 0.00 | 0.13 | 0.00 | 82 | 1020.8 |
| 20260831090438 | 58 | 157 | 0.0 | 0.0 | 0.00 | 0.13 | 0.00 | 83 | 1020.7 |
| 20260831084539 | 59 | 157 | 0.0 | 0.0 | 0.00 | 0.13 | 0.00 | 82 | 1020.8 |
| 20260831083636 | 59 | 157 | 0.0 | 0.0 | 0.00 | 0.14 | 0.00 | 82 | 1020.8 |
| 20260831082637 | 58 | 157 | 0.0 | 0.0 | 0.00 | 0.14 | 0.00 | 80 | 1021.0 |
| 20260831081636 | 59 | 157 | 0.0 | 0.0 | 0.00 | 0.14 | 0.00 | 79 | 1020.8 |
| 20260831080635 | 59 | 157 | 0.0 | 0.0 | 0.00 | 0.14 | 0.00 | 78 | 1021.1 |